Location: Bourg-d�Oueil
(42.8588°N, 0.4991°E)
Time: 20:01:14
(UTC+00:00)

Okean 1-7 Rocket - Pass Details

Date: 16 June 2021
Orbit: 616 x 649 km, 82.5° (Epoch: 23 July)

Event Time Altitude Azimuth Distance (km) Brightness Sun altitude
Exits shadow 23:06:11 39° 94° (E) 951 4.3 -22.7°
Maximum altitude 23:06:15 39° 92° (E) 950 4.3 -22.7°
Drops below altitude 10° 23:10:25 10° 23° (NNE) 2,018 6.9 -22.8°
Sets 23:12:45 0° 16° (NNE) 2,925 8.0 -22.9°
